Find Starlink 32083

NORAD ID: 60343 Int'l Des: 2024-136 Owner: SPXS Country: US Constellation: starlink operational
LEOCIRCULAR

Live Position

Loading 3D Globe...

About Starlink 32083

Description loading...

Upcoming Passes

Passes for default location (London). Set your location on the main map for personalized predictions.

Altitude History

Loading altitude history...

Two-Line Element Set

1 60343U 24136Q 26103.62358263 .00000950 00000-0 44212-4 0 9990
2 60343 53.1611 273.3237 0000971 62.3614 297.7485 15.30193024 95016
Epoch: Apr 13, 2026 • Age: 19 hours

Current Status

Altitude 486.2 km
Velocity 7.62 km/s
Sub-Earth Point -33.98°S, 106.76°W
Launch Date Aug 2, 2024
Age 1.6 years
Type internet

Technical Details

Classification Payload
Mass 730.00 kg
Dry Mass 700.00 kg
Total Mass 730.00 kg
Length 0.30 m
Diameter 4.10 m
Span 29.00 m
Shape Box + pan
Manufacturer SPXS
Bus Type Starlink V2M
Phase Status In Orbit
Owner/State SPXS/US

Most Searched